Regional Weather Roundup
Issued by NWS

Home | Current Version | Previous Version | Text Only | Print | Product List | Glossary Off
Versions: 1 2 3 4 5 6 7 8 9 10 11 12 13 14 15 16 17 18 19 20 21 22 23 24 25 26 27 28 29 30 31 32 33 34 35 36 37 38 39 40 41 42 43 44 45 46 47 48 49 50

000
ASUS43 KMPX 191501
RWRMN
WEATHER ROUNDUP FOR MINNESOTA
NATIONAL WEATHER SERVICE TWIN CITIES/CHANHASSEN MN
1000 AM CDT SAT AUG 19 2017


NOTE: "FAIR" INDICATES FEW OR NO CLOUDS BELOW 12,000 FEET WITH NO
SIGNIFICANT WEATHER AND/OR OBSTRUCTIONS TO VISIBILITY. N/A MEANS
CURRENT SKY AND/OR WEATHER CONDITIONS ARE NOT AVAILABLE.

MNZ060>063-068>070-191600-
   Twin Cities Metro

CITY           SKY/WX    TMP DP  RH WIND       PRES   REMARKS
TWIN CITIES    MOSUNNY   64  59  83 SW6       29.97R
ST PAUL        SUNNY     69  64  84 MISG      29.97R HAZE
CRYSTAL        SUNNY     70  60  70 S7        29.95S
BLAINE         SUNNY     72  64  78 SW5       29.96R
LAKEVILLE      SUNNY     64  64 100 CALM      29.98R
EDEN PRAIRIE   CLOUDY    61  60  97 SW8       29.97R FOG
SOUTH ST PAUL  SUNNY     69  62  79 SW3       29.97S
LAKE ELMO      FAIR      68  64  88 S6        29.98S
$$
MNZ001>005-007-008-013>017-022>024-027-028-191600-
   Northwest Minnesota

CITY           SKY/WX    TMP DP  RH WIND       PRES   REMARKS
BEMIDJI        SUNNY     70  60  72 SW6       29.90S
HALLOCK        SUNNY     70  59  68 S7        29.81S
ROSEAU         SUNNY     72  61  68 S6        29.83F
WARROAD        SUNNY     70  61  73 SW6       29.83F
CROOKSTON      SUNNY     70  59  68 S8        29.85F
FOSSTON        SUNNY     68  57  68 S8        29.89F
DETROIT LAKES  SUNNY     68  61  77 S7        29.93S
MOORHEAD       SUNNY     66  61  82 S6        29.90S
PARK RAPIDS    SUNNY     71  63  75 W7        29.92F
MAHNOMEN       FAIR      67  62  81 S8        29.90S
$$
MNZ006-009>011-018-025>026-191600-
   North Central Minnesota

CITY           SKY/WX    TMP DP  RH WIND       PRES   REMARKS
BAUDETTE       SUNNY     72  59  63 SW6       29.84S
FLAG ISLAND    SUNNY     72  57  60 CALM      29.82S
INTL FALLS     SUNNY     70  59  68 SW3       29.86R
WASKISH        CLOUDY    72  63  73 W8        29.87S
BIG FORK       SUNNY     72  61  68 SW5       29.89S
LONGVILLE      SUNNY     64  64 100 SW7       29.92R
GRAND RAPIDS   SUNNY     70  61  73 W7        29.93S
CRANE LAKE     SUNNY     66  61  82 CALM      29.88S
ORR            SUNNY     66  61  82 CALM      29.86S
COOK           MOSUNNY   66  61  82 W5        29.90R
WALKER         FAIR      69  60  73 W8        29.91S
$$
MNZ012-019>021-037-191600-
   Northeast Minnesota

CITY           SKY/WX    TMP DP  RH WIND       PRES   REMARKS
DULUTH         SUNNY     70  61  73 NW5       29.91S
ELY            SUNNY     66  61  82 CALM      29.89S
HIBBING        SUNNY     67  63  87 W3        29.90S
EVELETH        PTSUNNY   60  58  93 CALM      29.92R FOG
DULUTH HARBOR  SUNNY     70  64  83 SW8       29.90R
TWO HARBORS    SUNNY     72  63  73 NW5       29.87S
SILVER BAY     SUNNY     73  61  64 SW3       29.86S
GRAND MARAIS     N/A     65  61  87 SW15      29.83R
G MARAIS ARPRT SUNNY     70  55  60 W5        29.88S
$$
MNZ029>031-032-039>041-046>048-054>057-064-191600-
   West Central Minnesota

CITY           SKY/WX    TMP DP  RH WIND       PRES   REMARKS
FERGUS FALLS   SUNNY     70  63  78 S6        29.91F
WHEATON        SUNNY     70  63  78 SE6       29.93S
MORRIS         SUNNY     70  64  83 S5        29.93S
ALEXANDRIA     SUNNY     70  60  70 W6        29.96F
ELBOW LAKE     FAIR      68  63  83 SE3       29.94S HAZE
WADENA         SUNNY     68  61  77 SW6       29.94R
GLENWOOD       SUNNY     70  61  73 SW5       29.96S
APPLETON       SUNNY     68  61  77 SE3       29.94S
BENSON         SUNNY     66  63  88 CALM      29.96F
ORTONVILLE     SUNNY     68  61  77 MISG      29.93S
MADISON        SUNNY     68  68 100 SE3       29.95S
WILLMAR        CLOUDY    63  63 100 SW5       29.98S
$$
MNZ033>034-036-042>043-049>051-058-059-191600-
   Central Minnesota

CITY           SKY/WX    TMP DP  RH WIND       PRES   REMARKS
ST CLOUD       SUNNY     70  64  81 SW3       29.95S
SAUK CENTRE    FAIR      68  62  80 W7        29.96S
PAYNESVILLE    SUNNY     69  65  88 SW3       29.97R
AITKIN         SUNNY     70  63  78 W6        29.92S
PINE RIVER     SUNNY     66  59  77 CALM      29.96S
BRAINERD       SUNNY     67  61  81 W6        29.94S
STAPLES        SUNNY     70  61  73 W6        29.94S
LONG PRAIRIE   FAIR      68  59  73 SW8       29.96S
LITTLE FALLS   SUNNY     63  61  94 SW3       29.95S
LITCHFIELD     SUNNY     68  63  83 S3        29.97S
BUFFALO        SUNNY     67  62  82 S5        29.97S
MAPLE LAKE     SUNNY     67  66  99 CALM      29.97S
HUTCHINSON     FOG       60  61 100 S5        29.99S VSB 1
$$
MNZ037-044-045-052-053-191600-
   East Central Minnesota

CITY           SKY/WX    TMP DP  RH WIND       PRES   REMARKS
PRINCETON      SUNNY     72  64  78 SW3       29.95S
MORA           SUNNY     66  61  82 SW3       29.96S
CAMBRIDGE      SUNNY     72  61  68 SW3       29.95S
RUSH CITY      SUNNY     69  62  77 SW5       29.95R HAZE
MOOSE LAKE     SUNNY     66  64  94 W3        29.91S
HINCKLEY       FAIR      68  63  83 CALM      29.94R
CLOQUET        SUNNY     72  61  68 W5        29.92R
MCGREGOR       SUNNY     64  63  94 W3        29.93S
$$
MNZ071>073-080-081-089-090-097-098-191600-
   Southwest Minnesota

CITY           SKY/WX    TMP DP  RH WIND       PRES   REMARKS
MONTEVIDEO     SUNNY     72  66  83 SW6       29.96S
GRANITE FALLS  CLOUDY    64  64 100 SE5       29.98S FOG
CANBY          SUNNY     70  63  77 CALM      29.97S
MARSHALL       SUNNY     69  63  81 S6        29.97S
REDWOOD FALLS  PTSUNNY   62  60  93 SW7       29.97S
OLIVIA         PTSUNNY   61  59  94 SW5       29.97S
PIPESTONE      MOSUNNY   63  61  94 SE3       29.98F FOG
WINDOM         SUNNY     64  63  94 SW6       30.00R
WORTHINGTON    SUNNY     65  62  90 S3        30.00S
JACKSON        SUNNY     63  63 100 CALM      30.00R
TRACY          SUNNY     65  65 100 SW7       29.99R
SLAYTON        SUNNY     62  58  88 S3        30.00S FOG
$$
MNZ065>067-074>077-082>085-091>093-191600-
   South Central Minnesota

CITY           SKY/WX    TMP DP  RH WIND       PRES   REMARKS
MANKATO        PTSUNNY   63  61  93 W6        29.99S
NEW ULM        FOG       59  57  94 S3        29.98S VSB 1/4
ST JAMES       SUNNY     64  61  88 CALM      29.99S
FAIRMONT       SUNNY     66  61  84 S3        30.00R
GLENCOE        CLOUDY    61  62 100 S3        29.97S FOG
FARIBAULT      SUNNY     66  63  88 S5        29.99R
OWATONNA       SUNNY     66  63  88 SW3       29.99R
WASECA         SUNNY     63  61  94 SW3       30.00S
ALBERT LEA     SUNNY     72  63  73 CALM      29.99R
$$
MNZ078>079-086>088-094>096-191600-
   Southeast Minnesota

CITY           SKY/WX    TMP DP  RH WIND       PRES   REMARKS
ROCHESTER      SUNNY     68  63  84 SW8       30.00R
RED WING       SUNNY     66  64  94 CALM      29.97R
STANTON        SUNNY     68  62  80 SW5       29.97S
DODGE CENTER   SUNNY     68  61  77 S6        29.99R
WINONA         SUNNY     61  61 100 CALM      29.98S
AUSTIN         SUNNY     70  59  68 S5        29.99R
PRESTON        SUNNY     67  56  66 SW5       30.01R
$$
ABBREVIATIONS USED IN REMARKS
   TC - TEMPERATURES IN CELSIUS
  WCI - WIND CHILL INDEX
   HX - HEAT INDEX
  VSB - VISIBILITY
$$



USA.gov is the U.S. government's official web portal to all federal, state and local government web resources and services.